Temperature
17 17 17 17 17 17 17 17 16 17 17 16 17 17 17 17 17 17 17 17 17 17 17 17 17 16 16 16 16 16 16 16 16 16 16 16 16 16 16 16 16 16 16
17 17 17 17 17 17 17 16 16 16 17 17 17 17 17 17 17 17 17 17 17 17 17 17 17 16 16 16 16 16 16 16 16 16 16 16 16 16 16 16 16 16 16
17 17 17 17 17 16 16 16 16 16 17 17 16 16 17 16 16 16 16 16 16 17 17 17 16 16 16 16 16 16 16 16 16 16 16 16 16 16 16 16 16 16 16
17 17 17 17 16 16 16 16 16 16 16 16 16 16 16 16 16 16 16 16 16 16 16 17 16 16 16 16 16 16 16 16 16 16 16 16 16 16 16 16 16 16 16
17 16 16 16 16 16 16 16 16 17 16 16 16 16 16 16 16 16 16 16 16 16 16 16 16 16 16 16 16 16 16 16 16 16 16 16 16 16 16 16 16 16 15
17 16 16 16 16 16 16 16 16 16 16 16 17 17 16 16 16 16 16 16 16 16 16 16 16 16 16 16 16 16 16 16 16 16 16 16 16 16 16 16 16 15 15
16 16 16 16 16 16 16 16 16 16 16 16 17 17 17 17 16 16 16 16 16 16 16 16 16 16 16 16 16 16 16 16 16 16 16 16 16 16 16 16 16 15 15
16 16 16 16 16 16 15 15 15 16 16 16 17 17 18 17 16 17 16 16 16 16 16 16 16 16 16 16 16 16 16 16 16 16 15 15 15 16 16 15 15 15 15
16 16 16 16 15 15 15 15 15 15 16 16 16 17 18 19 18 17 16 16 16 16 16 16 16 15 15 16 15 15 16 16 15 15 15 15 15 15 15 15 15 15 15
16 15 15 15 15 15 15 15 15 15 15 16 16 16 16 17 18 18 17 17 16 16 16 16 16 16 15 15 15 15 15 15 15 15 15 15 15 15 15 15 15 15 15
16 15 15 15 15 15 15 15 15 15 15 16 16 16 16 16 17 18 18 18 17 17 16 16 16 16 16 15 15 15 15 15 15 15 15 15 15 15 15 15 15 15 15
15 15 15 15 15 15 14 14 15 15 15 15 16 16 16 17 17 18 18 17 18 17 16 16 16 16 16 16 15 15 15 15 15 15 15 15 15 15 15 15 15 15 15
15 15 15 15 15 15 14 14 15 15 15 15 15 16 16 16 17 17 17 18 17 17 16 16 16 16 16 16 15 15 15 15 15 15 15 15 15 15 15 15 15 15 15
16 15 15 15 15 15 14 15 15 14 14 15 15 15 15 16 16 16 17 17 18 18 17 17 16 16 16 16 15 15 15 15 15 15 15 15 15 15 15 15 15 15 15
15 15 15 15 15 15 15 15 14 14 14 14 15 15 15 15 15 16 16 16 17 18 19 17 17 16 15 15 15 15 15 15 15 15 15 15 15 15 15 15 15 15 15
15 15 15 15 15 15 15 15 14 14 14 14 14 14 14 15 15 15 15 15 16 16 17 18 16 16 15 15 15 15 15 15 16 15 15 15 15 15 15 15 15 15 15
16 16 15 15 15 15 15 15 14 14 14 14 14 14 14 14 15 15 15 15 15 15 16 17 16 16 15 15 15 15 15 15 15 15 15 15 15 15 15 15 15 15 15
16 16 15 15 15 15 15 15 15 14 14 14 14 14 14 14 14 15 15 15 15 15 15 15 16 16 15 14 15 15 15 15 15 15 15 15 15 15 15 15 15 15 15
16 16 15 15 15 15 15 15 15 15 15 14 14 14 14 14 14 14 14 15 15 15 14 15 15 15 15 14 14 14 15 15 15 15 15 15 15 15 15 15 15 15 15
16 15 15 15 15 15 15 15 15 15 15 14 14 14 14 14 14 14 14 14 14 14 14 14 15 15 14 14 14 14 14 14 14 15 15 14 14 15 15 15 15 15 15
15 15 15 15 15 15 15 15 15 15 15 15 14 14 14 14 14 14 14 14 14 14 14 14 14 14 14 14 13 14 14 14 14 14 14 14 14 14 14 14 14 14 14
15 15 15 15 15 15 15 15 15 15 14 14 14 14 14 14 14 14 13 13 13 13 13 13 13 13 13 12 12 12 12 12 12 13 13 13 13 13 13 13 13 13 13
15 15 15 15 15 15 15 15 15 14 14 14 13 13 13 13 13 13 13 13 12 12 12 12 12 12 11 11 11 11 11 11 11 11 11 11 12 12 12 13 12 12 12
14 14 14 14 14 14 14 14 13 13 13 13 12 12 12 12 12 12 11 11 11 11 11 11 11 10 10 10 10 10 10 10 10 10 10 10 11 11 12 12 12 11 11
14 13 13 13 13 13 12 12 12 12 12 11 11 11 11 11 11 11 10 10 10 9 10 10 10 10 10 10 10 9 9 9 10 10 10 10 10 10 10 11 11 11 10
13 12 12 12 12 12 11 11 11 11 10 10 10 10 10 10 10 10 9 9 9 8 8 8 8 8 8 8 8 8 7 8 8 9 9 8 9 9 9 10 10 10 10
Wind_Speed
4 4 3 3 3 3 4 4 3 4 3 4 3 4 3 2 2 3 7 9 9 8 8 9 9 9 9 9 9 9 8 8 8 9 9 9 9 8 8 8 8 7 7
4 4 4 4 3 3 2 3 3 4 4 3 3 3 3 4 4 4 6 9 9 9 9 9 9 9 9 9 9 10 9 9 9 9 9 8 9 8 8 8 8 8 7
4 4 4 4 4 4 4 4 4 4 4 4 4 4 3 3 4 4 4 5 9 10 10 9 9 10 10 10 9 10 10 10 10 10 10 9 9 9 9 9 9 8 8
5 5 4 4 4 4 4 3 4 4 4 4 4 3 3 3 4 5 5 4 5 7 10 11 10 10 10 10 11 11 12 12 12 12 12 11 11 10 10 10 10 10 9
5 5 4 3 5 4 4 4 4 4 4 3 4 4 4 3 4 5 4 5 5 5 7 11 10 9 10 10 11 12 12 13 13 13 13 13 13 12 12 12 12 11 11
6 5 4 4 5 4 4 3 3 2 2 3 3 3 3 4 4 4 4 5 6 7 6 6 9 10 11 10 10 12 12 13 13 14 14 14 14 14 15 14 14 14 13
6 5 4 4 4 4 4 5 4 5 4 3 4 4 4 4 4 4 4 4 5 5 5 6 7 6 9 12 11 11 12 12 13 14 15 15 15 16 16 16 16 16 15
6 6 4 5 4 3 4 4 4 4 4 4 4 4 4 5 5 4 4 4 4 5 5 7 6 6 6 7 9 11 11 11 13 14 15 16 16 17 17 17 17 17 17
6 4 5 4 4 5 5 5 5 6 4 4 4 3 3 3 4 5 4 4 4 3 4 4 6 5 6 5 5 9 9 9 10 12 14 15 16 16 17 18 19 19 19
6 6 5 4 4 4 3 5 4 4 5 5 4 3 3 3 2 3 5 5 5 4 3 4 4 5 5 5 3 3 5 6 8 9 11 13 13 14 15 16 17 18 19
6 6 6 5 4 3 3 2 3 4 5 5 4 4 3 3 4 4 2 3 5 5 4 4 3 4 4 4 5 5 5 5 6 7 7 9 11 12 14 15 15 16 17
6 7 6 5 5 3 4 3 3 4 3 3 3 4 4 4 4 3 3 4 3 3 3 3 4 4 5 5 4 6 5 5 5 6 6 7 8 9 10 11 13 14 15
7 7 6 5 4 4 4 3 3 2 3 3 4 3 3 3 3 3 4 3 3 3 3 5 5 4 5 5 4 6 7 7 7 7 7 7 7 8 8 9 10 11 12
6 7 7 6 5 5 5 4 4 4 3 3 3 2 3 3 3 3 4 4 5 4 5 4 3 5 4 5 3 5 7 9 9 9 10 10 11 11 11 11 11 11 12
6 8 7 7 7 6 5 5 4 4 4 4 4 5 5 3 3 3 3 4 5 5 4 4 5 4 4 4 3 6 7 8 10 11 13 13 14 14 15 15 15 15 14
6 8 8 8 8 7 7 6 5 5 5 4 3 3 4 5 4 4 4 4 5 6 6 2 3 4 3 6 5 7 9 8 13 15 15 16 17 17 18 18 19 19 18
8 9 9 8 8 8 8 7 7 6 7 6 6 6 6 5 5 5 5 5 5 6 6 6 5 4 5 8 6 7 10 10 12 17 17 17 18 19 20 21 21 22 22
9 9 9 9 8 8 8 9 9 8 8 8 8 7 7 6 7 7 6 7 6 6 7 8 7 6 7 7 7 8 10 11 11 11 16 17 19 20 21 22 23 23 24
8 8 8 8 8 8 8 9 9 8 8 8 8 8 8 7 8 7 7 7 7 7 7 8 9 6 7 7 7 9 10 9 12 12 14 18 21 22 23 23 24 24 25
7 7 7 7 7 7 7 8 8 8 8 7 7 6 6 6 6 6 6 6 7 7 7 8 9 8 7 7 7 9 9 8 9 11 12 13 16 20 23 25 25 25 25
6 5 5 4 4 4 4 6 6 7 6 5 4 3 2 1 3 3 4 4 5 6 7 7 8 8 7 6 7 8 9 10 10 11 11 11 11 12 14 20 24 26 26
3 3 3 2 1 1 4 3 2 2 2 2 1 1 1 2 3 2 3 4 4 5 6 7 7 7 7 7 7 8 10 11 11 8 9 11 11 12 13 16 15 15 19
5 4 4 4 5 6 7 5 3 2 3 3 2 2 1 3 2 1 0 1 1 2 3 5 7 7 7 7 8 10 10 11 13 12 12 14 13 14 14 17 15 14 16
6 6 6 7 7 8 8 7 5 5 5 5 4 3 3 3 4 3 2 1 2 2 2 4 5 7 7 7 8 10 12 13 14 13 12 14 14 14 14 14 15 15 18
8 8 8 9 9 9 11 9 5 4 5 5 4 4 3 3 6 7 3 3 4 4 3 4 5 7 9 9 9 9 11 12 14 13 11 13 14 14 14 14 15 15 17
9 9 10 10 10 10 11 11 7 3 4 3 3 4 8 7 7 7 5 5 6 6 8 7 6 8 9 9 9 8 10 11 13 12 10 10 13 13 13 12 11 12 13
Wind_Direction
185 178 183 191 200 172 180 192 192 174 183 186 189 171 168 157 161 159 138 161 176 181 180 177 178 176 174 174 173 172 172 172 169 169 169 167 166 168 169 167 168 168 168
185 188 191 195 200 197 189 192 179 183 197 183 187 170 184 175 167 176 159 162 176 182 184 186 187 185 185 186 185 183 183 183 183 181 181 181 182 184 184 181 180 180 182
185 198 199 202 195 182 178 201 183 189 194 188 182 178 181 181 168 182 173 169 174 181 187 192 195 195 195 194 193 195 194 193 194 193 193 194 196 199 198 193 192 192 193
189 206 205 202 187 202 200 192 205 195 193 197 183 186 169 166 169 182 186 194 193 184 183 190 197 200 200 201 202 203 202 201 203 203 204 205 207 208 208 206 205 205 205
191 207 211 185 196 203 207 212 190 213 189 194 184 179 183 179 179 185 188 194 195 204 187 177 192 204 207 208 207 208 207 207 209 209 210 212 214 215 215 216 216 215 215
189 203 197 189 209 203 200 204 176 204 199 200 199 167 184 177 191 175 197 189 190 203 204 187 192 198 203 212 213 212 214 214 214 217 218 218 219 220 221 222 223 223 223
182 203 197 177 212 201 205 198 196 185 199 193 202 187 181 187 185 185 199 205 191 199 195 196 216 209 196 202 211 216 220 221 221 222 224 225 225 224 224 226 227 228 228
185 192 198 196 196 189 196 202 215 223 192 207 234 212 197 181 196 189 191 202 205 198 195 201 208 213 234 206 191 206 221 227 228 227 228 230 231 229 228 228 231 232 232
187 195 193 210 193 212 194 205 209 221 214 202 234 253 242 213 166 172 193 195 202 209 209 192 209 202 220 227 204 196 210 226 234 234 231 230 232 234 234 233 234 234 234
184 184 187 191 203 212 183 207 204 224 228 212 196 245 303 348 268 178 188 183 192 211 216 222 201 191 211 221 197 181 201 230 240 239 234 231 232 235 237 238 238 238 237
181 180 179 181 190 201 188 209 187 231 222 232 215 206 213 227 258 269 212 184 193 198 195 214 220 212 203 216 217 165 181 220 236 242 238 234 233 235 240 243 244 245 244
178 176 178 179 190 183 175 193 202 203 234 240 248 230 226 233 236 249 250 231 216 192 196 217 224 220 219 222 203 135 185 215 229 239 241 238 236 239 243 246 248 248 248
176 173 177 179 182 177 183 188 198 203 201 204 230 236 242 256 274 269 270 262 248 212 204 225 219 226 228 226 198 170 206 216 227 234 239 242 244 246 248 250 251 252 252
177 167 178 184 187 189 191 190 203 194 194 210 224 247 249 240 250 258 269 273 255 233 212 221 217 220 230 234 174 209 224 209 227 235 240 242 245 248 251 253 254 255 256
174 177 186 191 194 197 200 201 206 199 196 218 211 206 234 221 235 251 260 270 278 274 247 187 219 188 222 238 195 245 249 211 223 237 242 245 247 249 252 253 255 256 256
186 187 194 199 200 200 202 210 208 199 210 219 239 242 246 243 232 241 249 252 261 274 280 258 227 235 265 274 209 244 256 220 231 237 241 245 248 250 252 253 254 255 255
194 200 203 206 207 207 207 211 225 209 218 220 222 223 230 256 250 245 241 246 247 255 264 269 252 239 242 266 261 260 259 253 247 223 231 242 249 252 253 254 254 254 254
203 206 209 211 214 214 213 216 223 221 223 226 226 229 233 229 232 251 252 250 252 257 261 270 272 258 238 248 256 263 265 260 265 229 221 239 249 253 255 256 256 255 254
208 210 212 216 219 221 219 222 224 226 228 231 231 231 235 237 237 242 245 253 254 249 251 264 267 271 266 260 261 261 263 264 268 259 229 235 243 249 254 256 256 256 256
207 210 213 217 219 223 224 226 227 228 230 233 236 237 239 240 244 249 248 254 263 267 261 263 270 271 265 264 264 271 273 261 269 279 277 266 251 244 248 251 253 254 254
207 204 206 212 217 224 234 234 235 231 226 226 223 225 229 59 24 330 292 283 277 271 272 272 275 281 283 293 287 293 290 292 283 279 280 277 271 265 259 249 246 249 249
176 167 163 154 128 20 44 30 265 235 201 194 184 157 122 84 69 58 15 2 340 294 287 287 284 290 298 303 303 297 296 293 290 294 297 288 287 283 280 275 269 255 247
119 105 99 97 83 58 60 71 77 109 106 103 106 100 87 62 46 18 104 211 343 5 318 296 296 305 309 314 312 298 293 291 289 294 295 286 283 280 279 279 275 264 257
102 99 95 90 85 65 59 68 77 98 90 85 83 84 82 53 29 359 335 330 303 295 290 290 305 303 306 313 302 292 291 284 277 271 268 277 283 283 285 286 283 270 263
105 101 95 90 84 65 50 50 46 96 92 87 79 69 66 66 34 357 333 321 308 299 231 228 269 281 288 285 287 291 288 286 287 288 286 284 289 292 291 287 280 265 257
105 101 92 85 82 73 53 41 17 74 84 86 91 91 66 48 33 360 335 323 313 317 316 305 280 268 270 266 243 260 283 288 291 292 298 300 295 298 293 286 287 292 285
Height
1564 1565 1566 1567 1569 1569 1570 1571 1573 1573 1574 1576 1577 1578 1579 1580 1581 1582 1582 1581 1582 1583 1584 1585 1586 1587 1588 1589 1590 1591 1592 1593 1593 1594 1595 1596 1596 1597 1598 1598 1599 1599 1600
1563 1564 1565 1566 1568 1569 1570 1571 1572 1573 1574 1575 1576 1577 1578 1579 1580 1581 1582 1581 1582 1583 1584 1585 1586 1587 1588 1589 1590 1591 1592 1593 1594 1594 1595 1596 1596 1597 1598 1598 1599 1599 1600
1562 1564 1565 1566 1567 1568 1568 1570 1571 1572 1573 1575 1575 1576 1577 1578 1579 1580 1581 1582 1582 1582 1583 1584 1585 1586 1587 1588 1589 1590 1591 1592 1593 1594 1595 1595 1596 1597 1597 1598 1599 1599 1600
1561 1562 1564 1566 1566 1567 1569 1569 1571 1572 1573 1574 1575 1576 1576 1577 1578 1579 1580 1581 1582 1583 1583 1583 1584 1585 1586 1587 1588 1589 1590 1591 1592 1593 1594 1595 1595 1596 1597 1597 1598 1599 1599
1560 1562 1563 1564 1565 1567 1568 1569 1570 1572 1572 1573 1574 1575 1576 1576 1577 1578 1579 1580 1580 1581 1582 1582 1583 1584 1585 1586 1587 1588 1589 1590 1591 1592 1593 1594 1594 1595 1596 1596 1597 1598 1598
1559 1561 1562 1563 1565 1566 1567 1568 1568 1569 1571 1572 1574 1574 1575 1576 1577 1577 1578 1579 1579 1580 1581 1582 1582 1583 1583 1584 1585 1586 1587 1588 1589 1590 1591 1592 1593 1593 1594 1595 1595 1596 1597
1558 1559 1562 1562 1563 1565 1566 1567 1568 1569 1570 1571 1573 1574 1574 1575 1576 1576 1578 1578 1579 1579 1580 1580 1581 1582 1582 1582 1583 1584 1585 1586 1587 1588 1589 1590 1590 1591 1592 1593 1594 1594 1595
1557 1559 1560 1562 1563 1563 1564 1566 1567 1569 1570 1571 1572 1573 1574 1575 1575 1576 1576 1577 1578 1578 1579 1579 1580 1580 1581 1582 1582 1582 1583 1584 1584 1585 1586 1587 1588 1588 1589 1590 1591 1592 1592
1556 1558 1559 1561 1561 1563 1564 1564 1566 1567 1569 1570 1571 1572 1572 1572 1574 1575 1575 1576 1577 1577 1578 1578 1578 1579 1579 1580 1580 1580 1581 1581 1582 1582 1583 1583 1584 1585 1586 1587 1588 1589 1589
1555 1556 1557 1559 1560 1562 1562 1564 1565 1566 1567 1569 1570 1570 1572 1572 1573 1573 1575 1575 1576 1576 1577 1577 1578 1577 1577 1578 1578 1578 1578 1579 1579 1580 1580 1580 1581 1582 1582 1583 1584 1585 1586
1553 1555 1556 1557 1558 1561 1561 1562 1563 1565 1566 1568 1569 1570 1571 1572 1572 1573 1573 1574 1575 1575 1576 1576 1576 1577 1577 1577 1577 1577 1577 1577 1577 1577 1577 1577 1578 1578 1579 1580 1580 1581 1581
1552 1553 1555 1556 1558 1560 1560 1561 1562 1563 1565 1566 1568 1569 1570 1571 1571 1572 1572 1573 1573 1574 1574 1575 1575 1575 1576 1576 1576 1575 1575 1575 1575 1575 1575 1575 1575 1575 1576 1576 1576 1577 1577
1552 1552 1555 1555 1557 1558 1559 1560 1561 1562 1563 1564 1566 1568 1569 1570 1570 1571 1571 1572 1572 1572 1572 1573 1573 1574 1574 1574 1574 1573 1573 1573 1573 1573 1573 1573 1573 1573 1573 1573 1573 1573 1573
1551 1552 1553 1554 1556 1557 1558 1559 1561 1561 1562 1563 1564 1565 1567 1568 1569 1570 1571 1571 1570 1570 1570 1571 1571 1571 1572 1572 1571 1571 1571 1570 1571 1570 1570 1570 1570 1570 1570 1569 1569 1569 1568
1549 1550 1552 1553 1555 1556 1557 1558 1560 1560 1560 1562 1563 1564 1565 1566 1567 1567 1568 1569 1570 1568 1568 1568 1569 1569 1569 1569 1568 1568 1568 1567 1567 1567 1567 1567 1566 1566 1566 1565 1565 1564 1564
1547 1549 1550 1552 1553 1554 1555 1556 1558 1558 1559 1560 1561 1562 1562 1564 1565 1565 1566 1566 1567 1568 1567 1567 1567 1567 1566 1566 1565 1565 1565 1564 1563 1563 1563 1562 1562 1562 1561 1561 1560 1560 1559
1545 1547 1549 1550 1552 1553 1554 1555 1556 1557 1557 1558 1559 1560 1560 1561 1562 1563 1564 1564 1564 1565 1564 1565 1564 1564 1562 1562 1562 1561 1561 1560 1560 1558 1558 1557 1557 1556 1556 1555 1555 1554 1553
1543 1545 1547 1549 1550 1551 1552 1553 1554 1555 1555 1556 1557 1557 1558 1559 1559 1560 1561 1561 1561 1561 1561 1561 1561 1561 1559 1558 1557 1556 1557 1557 1556 1554 1552 1552 1551 1550 1549 1549 1548 1547 1547
1541 1543 1545 1546 1548 1549 1550 1550 1551 1552 1553 1553 1554 1554 1555 1555 1555 1557 1556 1558 1558 1558 1557 1557 1556 1556 1555 1554 1553 1552 1552 1550 1550 1550 1547 1545 1544 1543 1542 1541 1541 1540 1539
1539 1541 1542 1544 1545 1546 1547 1548 1548 1549 1549 1550 1550 1551 1551 1552 1552 1553 1553 1553 1553 1553 1553 1552 1552 1552 1551 1550 1549 1548 1547 1546 1544 1544 1542 1540 1538 1536 1534 1533 1533 1532 1531
1537 1538 1540 1541 1542 1543 1544 1544 1545 1546 1546 1547 1547 1547 1547 1548 1548 1548 1549 1549 1549 1549 1549 1548 1547 1547 1546 1545 1544 1543 1541 1540 1538 1538 1535 1534 1532 1530 1528 1526 1524 1523 1522
1534 1536 1537 1538 1539 1540 1540 1541 1541 1542 1542 1543 1543 1543 1543 1543 1543 1543 1544 1544 1544 1544 1543 1543 1542 1542 1540 1540 1538 1537 1535 1534 1532 1532 1529 1526 1525 1522 1521 1519 1518 1515 1514
1531 1532 1534 1535 1535 1536 1536 1537 1537 1538 1538 1539 1539 1539 1540 1540 1539 1539 1539 1539 1538 1538 1538 1538 1537 1536 1534 1533 1531 1530 1529 1527 1525 1523 1522 1518 1517 1514 1513 1511 1509 1506 1504
1528 1530 1531 1532 1532 1533 1534 1534 1535 1535 1536 1536 1536 1536 1536 1536 1536 1536 1535 1535 1534 1533 1533 1532 1531 1529 1528 1526 1525 1523 1522 1519 1517 1516 1514 1511 1509 1507 1504 1502 1499 1497 1495
1527 1528 1529 1530 1531 1531 1532 1533 1533 1534 1534 1534 1534 1534 1533 1533 1533 1532 1532 1531 1530 1529 1528 1526 1525 1523 1522 1520 1518 1517 1516 1514 1512 1510 1509 1506 1502 1499 1496 1493 1491 1488 1486
1526 1528 1529 1530 1530 1531 1531 1532 1532 1534 1533 1533 1532 1532 1531 1530 1529 1529 1528 1527 1527 1525 1524 1522 1520 1517 1516 1514 1512 1510 1509 1508 1505 1503 1502 1499 1495 1492 1487 1485 1484 1481 1479